Time,TemperatureF,DewpointF,PressureIn,WindDirection,WindDirectionDegrees,WindSpeedMPH,WindSpeedGustMPH,Humidity,HourlyPrecipIn,Conditions,Clouds,dailyrainin,SoftwareType,DateUTC
2013-09-06 00:14:00,79.0,75.0,30.04,NNE,19,0.0,1.0,88,0.00,,,0.32,,2013-09-06 04:14:00,
2013-09-06 00:23:00,78.0,74.0,30.04,NNE,19,0.0,0.0,89,0.00,,,0.31,,2013-09-06 04:23:00,
2013-09-06 00:54:00,78.0,75.0,30.04,NNE,19,0.0,0.0,91,0.00,,,0.31,,2013-09-06 04:54:00,
2013-09-06 01:12:00,78.0,75.0,30.03,NNE,19,0.0,0.0,92,0.00,,,0.31,,2013-09-06 05:12:00,
2013-09-06 01:23:00,78.0,75.0,30.03,NNE,19,0.0,0.0,92,0.00,,,0.31,,2013-09-06 05:23:00,
2013-09-06 01:42:00,78.0,75.0,30.03,NE,36,0.0,1.0,92,0.00,,,0.31,,2013-09-06 05:42:00,
2013-09-06 01:52:00,78.0,76.0,30.02,NE,36,0.0,1.0,93,0.00,,,0.31,,2013-09-06 05:52:00,
2013-09-06 02:12:00,78.0,76.0,30.03,East,86,0.0,1.0,93,0.00,,,0.31,,2013-09-06 06:12:00,
2013-09-06 02:22:00,78.0,76.0,30.02,East,86,0.0,1.0,93,0.00,,,0.31,,2013-09-06 06:22:00,
2013-09-06 02:42:00,78.0,76.0,30.02,East,86,0.0,0.0,93,0.00,,,0.31,,2013-09-06 06:42:00,
2013-09-06 02:53:00,78.0,76.0,30.02,East,86,0.0,0.0,93,0.00,,,0.31,,2013-09-06 06:53:00,
2013-09-06 03:12:00,78.0,76.0,30.02,East,86,0.0,0.0,94,0.00,,,0.31,,2013-09-06 07:12:00,
2013-09-06 03:23:00,77.0,75.0,30.02,East,86,0.0,0.0,94,0.00,,,0.31,,2013-09-06 07:23:00,
2013-09-06 03:42:00,77.0,75.0,30.01,ESE,123,0.0,2.0,93,0.00,,,0.31,,2013-09-06 07:42:00,
2013-09-06 03:52:00,77.0,75.0,30.01,ESE,123,0.0,0.0,94,0.00,,,0.31,,2013-09-06 07:52:00,
2013-09-06 04:12:00,77.0,75.0,30.01,ESE,123,0.0,1.0,93,0.00,,,0.31,,2013-09-06 08:12:00,
2013-09-06 04:22:00,77.0,75.0,30.01,ESE,123,0.0,1.0,93,0.00,,,0.31,,2013-09-06 08:22:00,
2013-09-06 04:42:00,77.0,75.0,30.01,ESE,122,0.0,0.0,94,0.00,,,0.31,,2013-09-06 08:42:00,
2013-09-06 04:52:00,77.0,75.0,30.01,ENE,63,0.0,2.0,94,0.00,,,0.31,,2013-09-06 08:52:00,
2013-09-06 05:11:00,77.0,75.0,30.01,ENE,63,0.0,1.0,93,0.00,,,0.31,,2013-09-06 09:11:00,
2013-09-06 05:22:00,77.0,74.0,30.01,ENE,63,0.0,0.0,92,0.00,,,0.31,,2013-09-06 09:22:00,
2013-09-06 05:43:00,77.0,74.0,30.01,ENE,63,0.0,0.0,92,0.00,,,0.31,,2013-09-06 09:43:00,
2013-09-06 05:53:00,76.0,74.0,30.01,ENE,63,0.0,0.0,92,0.00,,,0.31,,2013-09-06 09:53:00,
2013-09-06 06:13:00,76.0,74.0,30.01,ENE,63,0.0,0.0,92,0.00,,,0.31,,2013-09-06 10:13:00,
2013-09-06 06:23:00,76.0,74.0,30.01,ENE,63,0.0,1.0,92,0.00,,,0.31,,2013-09-06 10:23:00,
2013-09-06 06:43:00,76.0,74.0,30.01,ENE,63,0.0,0.0,92,0.00,,,0.31,,2013-09-06 10:43:00,
2013-09-06 06:53:00,76.0,74.0,30.01,ENE,65,0.0,1.0,93,0.00,,,0.31,,2013-09-06 10:53:00,
2013-09-06 07:12:00,76.0,74.0,30.02,East,82,0.0,1.0,93,0.00,,,0.31,,2013-09-06 11:12:00,
2013-09-06 07:22:00,75.0,73.0,30.02,ENE,78,0.0,2.0,93,0.00,,,0.31,,2013-09-06 11:22:00,
2013-09-06 07:42:00,75.0,73.0,30.02,East,89,0.0,2.0,94,0.00,,,0.31,,2013-09-06 11:42:00,
2013-09-06 07:52:00,75.0,73.0,30.02,ESE,110,0.0,2.0,95,0.00,,,0.31,,2013-09-06 11:52:00,
2013-09-06 08:12:00,76.0,75.0,30.02,ESE,116,1.0,2.0,96,0.00,,,0.31,,2013-09-06 12:12:00,
2013-09-06 08:22:00,76.0,75.0,30.02,East,99,0.0,3.0,97,0.00,,,0.31,,2013-09-06 12:22:00,
2013-09-06 08:42:00,77.0,76.0,30.03,East,83,0.0,2.0,96,0.00,,,0.31,,2013-09-06 12:42:00,
2013-09-06 08:52:00,78.0,77.0,30.03,East,101,1.0,3.0,97,0.00,,,0.31,,2013-09-06 12:52:00,
2013-09-06 09:11:00,79.0,77.0,30.03,East,98,1.0,4.0,94,0.00,,,0.31,,2013-09-06 13:11:00,
2013-09-06 09:22:00,81.0,78.0,30.03,East,92,1.0,3.0,92,0.00,,,0.31,,2013-09-06 13:22:00,
2013-09-06 09:42:00,83.0,79.0,30.04,East,90,1.0,5.0,88,0.00,,,0.31,,2013-09-06 13:42:00,
2013-09-06 09:52:00,84.0,79.0,30.04,SSE,150,1.0,6.0,86,0.00,,,0.31,,2013-09-06 13:52:00,
2013-09-06 10:11:00,84.0,79.0,30.04,SE,134,0.0,5.0,84,0.00,,,0.31,,2013-09-06 14:11:00,
2013-09-06 10:22:00,84.0,79.0,30.04,ESE,118,1.0,5.0,85,0.00,,,0.31,,2013-09-06 14:22:00,
2013-09-06 10:52:00,86.0,79.0,30.05,SE,146,1.0,4.0,80,0.00,,,0.31,,2013-09-06 14:52:00,
2013-09-06 11:11:00,87.0,79.0,30.05,East,99,1.0,4.0,77,0.00,,,0.31,,2013-09-06 15:11:00,
2013-09-06 11:22:00,87.0,78.0,30.05,SE,136,0.0,4.0,75,0.00,,,0.31,,2013-09-06 15:22:00,
2013-09-06 11:43:00,88.0,78.0,30.04,ENE,78,0.0,4.0,73,0.00,,,0.31,,2013-09-06 15:43:00,
2013-09-06 11:53:00,89.0,80.0,30.04,South,177,0.0,3.0,75,0.00,,,0.31,,2013-09-06 15:53:00,
2013-09-06 12:13:00,89.0,77.0,30.04,ENE,62,0.0,4.0,69,0.00,,,0.31,,2013-09-06 16:13:00,
2013-09-06 12:24:00,91.0,78.0,30.04,SE,139,2.0,5.0,66,0.00,,,0.31,,2013-09-06 16:24:00,
2013-09-06 12:43:00,90.0,78.0,30.03,ESE,105,0.0,5.0,67,0.00,,,0.31,,2013-09-06 16:43:00,
2013-09-06 12:53:00,91.0,79.0,30.03,East,101,0.0,4.0,68,0.00,,,0.31,,2013-09-06 16:53:00,
2013-09-06 13:13:00,91.0,79.0,30.03,SE,136,0.0,5.0,69,0.00,,,0.31,,2013-09-06 17:13:00,
2013-09-06 13:24:00,92.0,79.0,30.03,ENE,63,1.0,5.0,65,0.00,,,0.31,,2013-09-06 17:24:00,
2013-09-06 13:43:00,91.0,78.0,30.02,SE,128,3.0,7.0,65,0.00,,,0.31,,2013-09-06 17:43:00,
2013-09-06 13:53:00,88.0,78.0,30.02,SW,231,4.0,8.0,73,0.00,,,0.31,,2013-09-06 17:53:00,
2013-09-06 14:12:00,83.0,78.0,30.03,NE,41,1.0,6.0,86,0.20,,,0.51,,2013-09-06 18:12:00,
2013-09-06 14:52:00,87.0,83.0,29.99,WNW,284,2.0,7.0,87,0.28,,,0.59,,2013-09-06 18:52:00,
2013-09-06 15:12:00,88.0,81.0,29.98,SW,218,4.0,8.0,81,0.08,,,0.59,,2013-09-06 19:12:00,
2013-09-06 15:22:00,89.0,82.0,29.98,WNW,294,4.0,7.0,79,0.00,,,0.59,,2013-09-06 19:22:00,
2013-09-06 15:43:00,89.0,82.0,29.96,SW,224,5.0,9.0,79,0.00,,,0.59,,2013-09-06 19:43:00,
2013-09-06 15:52:00,90.0,81.0,29.96,SW,232,4.0,10.0,76,0.00,,,0.59,,2013-09-06 19:52:00,
2013-09-06 16:12:00,91.0,82.0,29.96,WSW,237,4.0,9.0,75,0.00,,,0.59,,2013-09-06 20:12:00,
2013-09-06 16:23:00,90.0,81.0,29.94,WNW,288,4.0,10.0,74,0.00,,,0.59,,2013-09-06 20:23:00,
2013-09-06 16:42:00,89.0,81.0,29.94,WNW,290,3.0,11.0,77,0.00,,,0.59,,2013-09-06 20:42:00,
2013-09-06 16:52:00,88.0,79.0,29.94,NNW,329,3.0,9.0,76,0.00,,,0.59,,2013-09-06 20:52:00,
2013-09-06 17:12:00,87.0,79.0,29.95,WNW,284,3.0,11.0,78,0.00,,,0.59,,2013-09-06 21:12:00,
2013-09-06 17:22:00,88.0,80.0,29.95,WNW,290,3.0,11.0,77,0.00,,,0.28,,2013-09-06 21:22:00,
2013-09-06 17:54:00,88.0,79.0,29.95,WNW,300,1.0,9.0,76,0.00,,,0.28,,2013-09-06 21:54:00,
2013-09-06 18:13:00,82.0,73.0,29.96,East,80,1.0,11.0,74,0.00,,,0.28,,2013-09-06 22:13:00,
2013-09-06 18:23:00,80.0,72.0,29.96,ESE,122,1.0,3.0,77,0.00,,,0.28,,2013-09-06 22:23:00,
2013-09-06 18:53:00,78.0,71.0,29.97,East,83,3.0,13.0,79,0.00,,,0.28,,2013-09-06 22:53:00,
2013-09-06 19:13:00,77.0,71.0,29.99,NE,53,2.0,9.0,83,0.00,,,0.28,,2013-09-06 23:13:00,
2013-09-06 19:23:00,76.0,72.0,29.98,ENE,64,1.0,5.0,86,0.00,,,0.28,,2013-09-06 23:23:00,
2013-09-06 19:52:00,77.0,72.0,30.01,ENE,76,2.0,8.0,86,0.00,,,0.28,,2013-09-06 23:52:00,
2013-09-06 20:12:00,76.0,72.0,30.01,East,96,1.0,8.0,88,0.00,,,0.28,,2013-09-07 00:12:00,
2013-09-06 20:22:00,75.0,72.0,30.01,ESE,116,1.0,10.0,89,0.00,,,0.28,,2013-09-07 00:22:00,
2013-09-06 20:42:00,75.0,72.0,30.02,East,88,1.0,11.0,89,0.00,,,0.28,,2013-09-07 00:42:00,
2013-09-06 20:52:00,75.0,72.0,30.02,East,86,4.0,9.0,89,0.00,,,0.28,,2013-09-07 00:52:00,
2013-09-06 21:12:00,75.0,72.0,30.02,ENE,77,2.0,9.0,90,0.00,,,0.28,,2013-09-07 01:12:00,
2013-09-06 21:22:00,75.0,72.0,30.02,ENE,77,0.0,7.0,90,0.00,,,0.28,,2013-09-07 01:22:00,
2013-09-06 21:42:00,75.0,72.0,30.01,SE,124,1.0,7.0,89,0.00,,,0.28,,2013-09-07 01:42:00,
2013-09-06 21:53:00,75.0,72.0,30.00,East,98,1.0,4.0,89,0.00,,,0.28,,2013-09-07 01:53:00,
2013-09-06 22:12:00,75.0,71.0,30.00,East,88,0.0,2.0,88,0.00,,,0.28,,2013-09-07 02:12:00,
2013-09-06 22:23:00,75.0,71.0,29.99,East,88,0.0,1.0,88,0.00,,,0.28,,2013-09-07 02:23:00,
2013-09-06 22:43:00,75.0,71.0,29.98,ESE,109,0.0,2.0,88,0.00,,,0.28,,2013-09-07 02:43:00,
2013-09-06 22:52:00,74.0,70.0,29.98,ESE,109,0.0,0.0,88,0.00,,,0.28,,2013-09-07 02:52:00,
2013-09-06 23:12:00,74.0,71.0,29.97,SSW,199,0.0,3.0,89,0.00,,,0.28,,2013-09-07 03:12:00,
2013-09-06 23:23:00,74.0,71.0,29.96,SSW,199,0.0,1.0,90,0.00,,,0.28,,2013-09-07 03:23:00,
2013-09-06 23:45:00,74.0,71.0,29.96,SSW,199,0.0,0.0,91,0.00,,,0.28,,2013-09-07 03:45:00,
2013-09-06 23:55:00,74.0,71.0,29.96,WSW,252,0.0,1.0,91,0.00,,,0.28,,2013-09-07 03:55:00,